Regional Weather Roundup
Issued by NWS Northern Indiana

Home | Current Version | Previous Version | Graphics & Text | Print | Product List | Glossary On
Versions: 1 2 3 4 5 6 7 8 9 10 11 12 13 14 15 16 17 18 19 20 21 22 23 24 25 26 27 28 29 30 31 32 33 34 35 36 37 38 39 40 41 42 43 44 45 46 47 48 49 50
000
ASUS43 KIWX 281110
RWRIWX

KIWX WEATHER ROUNDUP
NATIONAL WEATHER SERVICE NORTHERN INDIANA
700 AM EDT SAT MAR 28 2015

NOTE: "FAIR" INDICATES FEW OR NO CLOUDS BELOW 12,000 FEET WITH NO
SIGNIFICANT WEATHER AND/OR OBSTRUCTIONS TO VISIBILITY.

* THESE STATIONS ARE NOT UNDER NWS QUALITY CONTROL. THEY ALSO MAY NOT
  REPORT WEATHER SUCH AS PRECIPITATION OR FOG.

INZ001>027-281200-
NORTHERN INDIANA

CITY           SKY/WX    TMP DP  RH WIND       PRES   REMARKS
GARY*          CLEAR     25   9  50 NE12      30.26R WCI  14
VALPARAISO     CLEAR     14   6  70 NE3       30.25R
MICHIGAN CITY* CLEAR     16   7  67 CALM      30.27R
LAPORTE*       PTCLDY    15   7  69 N6        30.25R WCI   7
KNOX*            N/A     14   1  57 N5        30.24R WCI   6
SOUTH BEND     CLEAR     12   5  73 N5        30.25R WCI   4
GOSHEN         CLEAR     14   7  73 N5        30.23R WCI   6
MONTICELLO*    CLEAR     17  11  77 N5        30.24R WCI  10
LOGANSPORT*    CLEAR     18  14  86 N7        30.24R WCI   8
ROCHESTER*     CLEAR     19  14  79 CALM      30.24R
WARSAW*        CLEAR     14  10  85 CALM      30.23R
ANGOLA*        CLEAR     12   7  79 CALM      30.21R
FORT WAYNE     PTCLDY    17  10  74 NE8       30.23R WCI   7
HUNTINGTON*    CLEAR     17   9  71 CALM      30.22R
PERU/GRISSOM   CLEAR     17  11  78 N7        30.21R WCI   7
MARION*        CLEAR     18  13  80 N6        30.21R WCI   9

$$
INZ028>050-281200-
CENTRAL INDIANA

CITY           SKY/WX    TMP DP  RH WIND       PRES   REMARKS
LAFAYETTE      CLEAR     16  12  84 N7        30.24R WCI   6
KOKOMO*          N/A     18  12  79 N7        30.22R WCI   8
MUNCIE*        CLEAR     18  13  80 N5        30.19R WCI  11
INDIANAPOLIS   PTCLDY    18  12  77 N8        30.20R WCI   8

$$
MIZ043>046-050>051-056>058-064>065-071>073-077>080-281200-
SOUTHWEST LOWER MICHIGAN

CITY           SKY/WX    TMP DP  RH WIND       PRES   REMARKS
BATTLE CREEK   CLEAR     14   5  67 N3        30.23R
BENTON HARBOR  CLEAR     10   5  80 CALM      30.26R
COLDWATER*     CLEAR     14   6  70 CALM      30.21R
HILLSDALE*     CLEAR     12   6  76 CALM      30.19R
HOLLAND        CLEAR     15   4  61 N3        30.27R
GRAND RAPIDS   CLEAR     13   3  64 N3        30.25R
KALAMAZOO      CLEAR     13   4  67 CALM      30.24R
STURGIS*       CLEAR     12   7  79 CALM      30.22R
THREE RIVERS*  FAIR      15   8  71 CALM      30.24R

$$
OHZ001>008-015>018-024>025-281200-
NORTHWEST OHIO

CITY           SKY/WX    TMP DP  RH WIND       PRES   REMARKS
WAUSEON*       FAIR      16   7  67 N6        30.22R WCI   7
DEFIANCE       CLEAR     15   8  73 N6        30.23R WCI   6
FINDLAY        CLEAR     16   7  67 N6        30.19R WCI   7
TOLEDO EXPRESS CLEAR     15   7  70 NW5       30.21R WCI   8
TOLEDO METCALF MOCLDY    18   5  57 N9        30.22R WCI   7
LIMA           CLEAR     18   7  62 N7        30.18R WCI   9

$$
AND FOR LAKE MICHIGAN COASTAL AND OPEN LAKE BUOY OBSERVATIONS

STATION/POSITION TEMP    WIND        PRES    VSBY  WAVE
                 AIR SEA DIR/SP/G                  HT/PER
                 (F)     (DEG/KT/KT) (MB)    (MI)  (FT/S)
CALUMET HARBOR    25      10/  9/ 13 1023.3R
MICHIGAN CITY     18      60/  5/  6   N/A
BURNS HARBOR      21     100/  6/  8 1025.1R
SAINT JOSEPH      15      CALM  /  2 1025.1S

$$
&&


USA.gov is the U.S. government's official web portal to all federal, state and local government web resources and services.